Location: Astronomy Club of Akron Observatory
(40.9700°N, 81.5606°W)
Time: 06:06:53
(UTC-04:00)

Daily predictions for brighter satellites

Satellite Brightness Start Highest point End
(mag) Time Altitude Azimuth Time Altitude Azimuth Time Altitude Azimuth
Cosmos 1697 Rocket 4.1 20:38:00 10° SW 20:43:20 44° WNW 20:48:44 10° NNE
ATLAS 3B R/B 4.1 20:40:52 10° NNW 20:46:05 22° NE 20:51:07 10° E
CZ-2D R/B 3.2 20:43:35 10° SSE 20:47:25 69° ENE 20:51:16 10° N
Helios 1B rocket 4.2 20:47:01 10° ENE 20:49:09 14° E 20:51:18 10° SE
Abrixas rocket 4.3 20:48:10 10° WNW 20:50:52 23° N 20:53:37 10° NE
Cosmos 921 Rocket 3.6 20:47:30 10° SSW 20:51:37 60° WNW 20:55:46 10° N
NOSS 2-3 (D) 4.3 20:52:26 10° S 20:56:41 37° ESE 21:01:26 10° NE
USA 267 3.8 20:51:00 10° SSE 20:57:25 57° SW 21:03:52 10° NW
Envisat 3.2 20:52:58 10° SSE 20:57:54 54° ENE 21:02:51 10° N
Cosmos 44 Rocket 3.6 20:54:06 10° NW 20:58:49 68° WSW 21:03:36 10° SSE
Okean 1 Rocket 4.4 20:56:14 10° SE 20:59:28 21° E 21:02:43 10° NE
MINOTAUR R/B 4.3 20:56:58 10° NNW 20:59:44 89° W 21:02:30 10° SSE
H-2A R/B 4.2 20:56:37 10° S 21:00:12 39° W 21:03:46 10° NNW
S3M 4.1 20:54:14 10° N 21:00:26 60° E 21:06:41 10° SSE
Cosmos 1300 Rocket 4.2 20:58:27 10° SSE 21:02:17 32° E 21:06:09 10° NNE
Cosmos 1553 Rocket 4.0 20:56:10 10° N 21:02:18 66° E 21:08:19 10° SSE
Cosmos 2227 4.4 20:59:21 10° NNW 21:05:00 78° WSW 21:10:40 10° SSE
Atlas Centaur 2 3.7 20:58:38 10° WSW 21:06:10 38° S 21:12:08 13° SE
Cosmos 2266 Rocket 4.4 21:01:40 10° SSE 21:07:12 39° E 21:12:45 10° NNE
Resurs 01 Rocket 1.8 21:04:25 10° S 21:08:51 78° WSW 21:13:19 10° NNW
Tiangong 1 0.9 21:06:14 10° WNW 21:09:01 67° N 21:11:06 16° E
Cosmos 2151 Rocket 3.6 21:14:21 10° S 21:18:44 87° W 21:23:10 10° N
Cosmos 1602 4.2 21:18:43 10° SSW 21:22:31 64° W 21:26:20 10° N
ATLAS 2AS CENTAUR R/B 3.1 21:15:28 10° S 21:22:48 54° ESE 21:30:37 10° NE
EXPRESS MD2 3.7 21:21:17 10° WSW 21:23:48 50° NNW 21:28:03 10° NE
Meteor 1-11 Rocket 3.8 21:23:31 10° S 21:29:23 88° ESE 21:35:09 10° N
ARGOS 4.4 21:27:05 17° ESE 21:29:42 25° ENE 21:33:59 10° NNE
GENESIS II 4.5 21:27:14 10° NW 21:31:09 64° WSW 21:34:00 17° SSE
NOSS 2-3 (E) 3.8 21:28:52 10° SSW 21:33:30 84° ESE 21:38:55 10° NE
Helios 1A 3.1 21:31:31 19° SE 21:34:25 56° ENE 21:38:36 10° N
Cosmos 2263 Rocket 2.2 21:30:06 10° NNW 21:35:49 71° ENE 21:39:53 19° SSE
Cosmos 1850 Rocket 4.0 21:30:40 10° NNW 21:36:02 88° ENE 21:40:27 15° SSE
Cosmos 1536 Rocket 3.8 21:32:42 10° NNW 21:37:01 70° W 21:41:19 10° S
Cosmos 2322 Rocket 2.4 21:31:57 10° SSW 21:37:39 77° WNW 21:43:23 10° NNE
Cosmos 1331 Rocket 4.5 21:35:08 10° SSE 21:39:52 37° ESE 21:44:39 10° NE
Cosmos 1844 Rocket 4.3 21:38:44 10° N 21:42:52 20° NE 21:45:14 16° E
SPOT 5 4.1 21:44:52 22° E 21:46:10 25° ENE 21:49:58 10° NNE
CZ-4B DEB 2.8 21:46:10 44° E 21:46:20 44° ENE 21:49:06 10° N
YAOGAN 6 2.5 21:45:29 23° S 21:47:35 86° WSW 21:51:07 10° NNW
SL-16 R/B 2.7 21:43:32 10° SW 21:49:08 63° WNW 21:54:47 10° NNE
Lacrosse 5 1.7 21:45:06 10° SW 21:50:08 76° SE 21:55:14 10° NE
SeaSat 1 2.9 21:45:44 10° NNE 21:50:37 64° WNW 21:55:29 10° SW
Meteor 1-23 Rocket 4.1 21:45:11 10° N 21:50:47 79° E 21:54:51 19° SSE
Cosmos 1515 4.4 21:49:05 10° N 21:52:35 34° ENE 21:52:54 33° E
Cosmos 2219 Rocket 4.2 21:59:33 12° ENE 21:59:33 12° ENE 22:00:17 10° ENE
Cosmos 1939 Rocket 3.8 21:55:01 12° S 21:58:34 44° W 22:02:21 10° NNW
Cosmos 2322 3.8 21:53:57 10° S 21:59:24 52° ESE 22:04:54 10° NNE
MetOp-B 4.3 21:59:01 32° SE 22:01:18 54° ENE 22:06:31 10° N
Cosmos 1536 3.8 21:58:44 10° SSW 22:02:40 48° W 22:06:38 10° N
BREEZE M DEB (TANK) 2.9 21:54:53 10° SW 22:03:22 52° SSE 22:04:17 41° ESE
Lacrosse 5 rocket 3.8 22:03:16 10° W 22:05:01 13° WSW 22:06:46 10° SSW
Cosmos 1500 3.7 22:08:14 41° ENE 22:08:14 41° ENE 22:11:30 10° NNE
COSMOS 2428 3.3 22:09:18 34° ESE 22:09:19 34° ESE 22:14:26 10° NE
Cosmos 2360 Rocket 2.1 22:05:19 10° SSW 22:10:57 81° ESE 22:16:36 10° NNE
Delta 2 Rocket 4.3 22:10:05 10° SW 22:13:25 35° S 22:13:25 35° S
SL-8 R/B 4.3 22:12:32 10° NW 22:17:13 50° NNE 22:18:49 35° ENE
SL-08 RB Rocket 3.9 22:17:32 47° E 22:18:02 49° ENE 22:22:25 10° N
Cosmos 1455 Rocket 4.2 22:20:38 29° ENE 22:20:38 29° ENE 22:23:32 10° NNE
USA 238 DEB 3.9 22:13:18 10° NNW 22:20:22 63° NE 22:23:13 37° ESE
USA 238 3.9 22:13:25 10° NNW 22:20:28 63° NE 22:23:19 37° ESE
Cosmos 2333 Rocket 4.1 22:25:45 15° ENE 22:25:45 15° ENE 22:27:00 10° NE
Helios 1B rocket 3.4 22:20:46 10° N 22:24:42 46° WNW 22:28:37 10° SW
Meteor 1-29 3.9 22:23:09 10° N 22:26:27 46° WNW 22:27:30 33° WSW
Cosmos 1244 Rocket 4.3 22:24:44 28° S 22:28:09 81° E 22:34:19 10° N
Abrixas rocket 4.0 22:25:28 10° NW 22:28:17 25° N 22:28:28 25° NNE
ERS-1 Rocket 3.1 22:26:32 39° S 22:28:25 72° WSW 22:33:27 10° NNW
NOAA 11 4.4 22:26:38 30° S 22:29:20 66° WSW 22:34:50 10° NNW
Cosmos 2333 4.4 22:31:01 47° E 22:31:01 47° E 22:36:05 10° NE
Terra 3.2 22:33:34 26° ENE 22:33:34 26° ENE 22:37:03 10° NNE
SAR-Lupe-4 4.5 22:37:17 42° WSW 22:37:26 42° W 22:40:52 10° NNW
ATLAS 3B R/B 2.5 22:30:58 10° NW 22:37:44 89° ENE 22:39:37 50° SE
H-2A R/B 1.9 22:39:26 65° ESE 22:39:51 68° ENE 22:44:49 10° N
Cosmos 2237 Rocket 4.4 22:45:35 12° ENE 22:45:35 12° ENE 22:46:04 10° NE
Tiangong 1 4.0 22:41:48 10° W 22:42:05 12° W 22:42:05 12° W
Cosmos 1025 Rocket 4.2 22:41:26 10° NNW 22:45:22 37° W 22:46:31 31° SW
SL-08 R/B 4.4 22:45:49 53° SSE 22:47:21 74° E 22:53:40 10° N
YAOGAN 11 4.2 22:52:55 72° NW 22:52:55 72° NW 22:56:51 10° NNW
Cosmos 1066 Rocket 4.0 22:48:07 10° N 22:53:35 88° WSW 22:54:09 73° S
Atlas Centaur 2 3.9 22:48:51 10° WSW 22:54:46 25° SSW 22:54:46 25° SSW
NOSS 3-2 (C) 4.4 22:49:58 10° NNW 22:57:14 50° NE 22:59:28 41° E
Cosmos 1302 Rocket 4.1 22:57:42 52° SW 22:58:57 73° WNW 23:04:15 10° NNE
Cosmos 1486 Rocket 3.9 22:56:11 10° NNW 23:01:26 80° WSW 23:01:28 80° WSW
Nimbus 7 Rocket 4.2 22:57:45 10° NNE 23:03:39 83° ESE 23:04:11 74° S
BREEZE-M DEB 3.9 22:59:07 10° WNW 23:04:47 45° N 23:04:47 45° N
H-2A R/B 4.0 23:06:57 22° NNE 23:06:57 22° NNE 23:09:05 10° N
Cosmos 1238 Rocket 4.3 22:59:38 10° NNW 23:06:17 63° W 23:08:05 46° SSW
Meteor 1-21 4.4 23:03:19 10° N 23:08:23 57° NE 23:08:23 57° NE
ARGOS 4.0 23:08:36 38° SW 23:09:41 43° W 23:14:47 10° NNW
ATLAS 2AS CENTAUR R/B 4.2 23:06:47 10° WSW 23:14:06 42° NW 23:21:44 10° NNE
Cosmos 2263 Rocket 4.5 23:15:48 10° WNW 23:19:02 16° W 23:21:36 12° SW
Cosmos 2278 Rocket 2.9 23:16:04 10° NNW 23:20:56 43° NE 23:20:56 43° NE
Cosmos 1745 Rocket 4.0 23:20:53 66° SW 23:21:36 74° W 23:27:46 10° N
SPOT 5 4.0 23:24:07 36° W 23:24:07 36° W 23:28:25 10° NNW
NOSS 3-4 (A) 3.9 23:25:52 49° NE 23:25:52 49° NE 23:30:32 10° NE
NOSS 3-4 (C) 4.0 23:26:02 47° NE 23:26:02 47° NE 23:30:39 10° NE
Cosmos 724 4.3 23:19:47 10° NNW 23:25:13 73° N 23:25:13 73° N
Cosmos 1844 Rocket 2.9 23:21:38 10° NNW 23:26:53 64° W 23:26:53 64° W
CENTAUR R/B 4.0 23:20:51 10° NNW 23:27:57 37° NE 23:30:23 31° ENE
DMSP B5D2-2 4.4 23:25:28 10° N 23:30:19 63° NW 23:30:19 63° NW
Lacrosse 5 4.0 23:29:22 10° W 23:33:35 26° NNW 23:37:49 10° NNE
NOSS 0 Rocket 4.5 23:36:36 48° NE 23:36:36 48° NE 23:41:03 10° NNE
Cosmos 2219 Rocket 2.6 23:41:13 60° NNW 23:41:13 60° NNW 23:46:01 10° NNE
Cosmos 1818 4.3 23:43:30 47° WNW 23:43:57 48° NW 23:49:14 10° NNE
SL-16 R/B 4.4 23:53:45 15° NE 23:53:45 15° NE 23:54:49 10° NE
COSMOS 2428 4.1 23:51:12 26° W 23:53:31 35° WNW 23:58:45 10° N
